Molonglo, Australia

5:53 PM AEDT on February 20, 2018 (GMT +1100)
Molonglo

Weather History for 94926 - June, 2013

Change the Weather History Date:

Sunday, June 23, 2013

  Actual Average Record
Temperature  
Mean Temperature 40 °F -  
Max Temperature 51 °F 52 °F - ()
Min Temperature 28 °F 31 °F - ()
Degree Days  
Heating Degree Days 26    
Moisture  
Dew Point 36 °F    
Average Humidity 79    
Maximum Humidity 100    
Minimum Humidity 51    
Precipitation  
Precipitation 0.01 in 0.05 in - ()
Sea Level Pressure  
Sea Level Pressure 30.37 in    
Wind  
Wind Speed 5 mph ()    
Max Wind Speed 15 mph    
Max Gust Speed -    
Visibility 6.2 miles    
Events Rain    
T = Trace of Precipitation, MM = Missing Value Source: Averaged Metar Reports

Daily Weather History Graph

Daily Weather History Graph

Search for Another Location

Airport or City:

Trip Planner

Search our weather history database for the weather conditions in past years. The results will help you decide how hot, cold, wet, or windy it might be!

Date:

Astronomy

Jun. 23, 2013 Rise Set
Actual Time 7:12 AM AEST 4:58 PM AEST
Civil Twilight 6:43 AM AEST 5:27 PM AEST
Nautical Twilight 6:12 AM AEST 5:58 PM AEST
Astronomical Twilight 5:41 AM AEST 6:29 PM AEST
Moon 4:55 PM AEST (6/23) 6:26 AM AEST (6/23)
Length of Visible Light 10h 43m
Length of Day
9h 46m
Full, 100% of the Moon is Illuminated
Jun 23
Full
Jun 23
Full
Jun 30
Last Quarter
Jul 8
New
Jul 16
First Quarter

Hourly Weather History & Observations

Time (AEST) Temp. Windchill Dew Point Humidity Pressure Visibility Wind Dir Wind Speed Gust Speed Precip Events Conditions
12:00 AM 33 °F - 32 °F 93% 30.40 in - North 4.6 mph - -  
12:00 AM 33.8 °F 29.6 °F 32.0 °F 93% 30.36 in 6.2 mi North 4.6 mph - N/A   Unknown
12:30 AM 32.0 °F - 30.2 °F 93% 30.33 in 6.2 mi Calm Calm - N/A   Scattered Clouds
1:00 AM 30 °F - 29 °F 93% 30.39 in - Calm Calm - -  
1:00 AM 30.2 °F - 28.4 °F 93% 30.33 in 6.2 mi Calm Calm - N/A   Unknown
1:30 AM 28.4 °F - 28.4 °F 100% 30.36 in 6.2 mi Calm Calm - N/A   Unknown
2:00 AM 30.2 °F - 30.2 °F 100% 30.33 in 6.2 mi Calm Calm - N/A   Unknown
2:30 AM 32.0 °F - 32.0 °F 100% 30.36 in 6.2 mi SSW 2.3 mph - N/A   Unknown
3:00 AM 33 °F - 32 °F 95% 30.39 in - South 2.3 mph - -  
3:00 AM 32.0 °F - 32.0 °F 100% 30.33 in 6.2 mi South 2.3 mph - N/A   Unknown
3:30 AM 32.0 °F - 30.2 °F 93% 30.33 in 6.2 mi SE 1.2 mph - N/A   Unknown
4:00 AM 34 °F - 33 °F 95% 30.39 in - ESE 1.2 mph - -  
4:00 AM 33.8 °F - 33.8 °F 100% 30.36 in 6.2 mi ESE 1.2 mph - N/A   Unknown
4:30 AM 32.0 °F 24.8 °F 32.0 °F 100% 30.36 in 6.2 mi SE 8.1 mph - N/A   Unknown
5:00 AM 32.0 °F 25.6 °F 30.2 °F 93% 30.36 in 6.2 mi SE 6.9 mph - N/A   Unknown
5:30 AM 30.2 °F - 28.4 °F 93% 30.36 in 6.2 mi SSE 2.3 mph - N/A   Unknown
6:00 AM 30 °F - 29 °F 97% 30.41 in - SSE 1.2 mph - -  
6:00 AM 30.2 °F - 30.2 °F 100% 30.36 in 6.2 mi SSE 1.2 mph - N/A   Partly Cloudy
6:30 AM 30.2 °F - 30.2 °F 100% 30.39 in 6.2 mi NNW 2.3 mph - N/A   Partly Cloudy
7:00 AM 31 °F - 30 °F 95% 30.43 in - Calm Calm - -  
7:00 AM 32.0 °F - 30.2 °F 93% 30.39 in 6.2 mi Calm Calm - N/A   Partly Cloudy
7:30 AM 33.8 °F 30.8 °F 32.0 °F 93% 30.39 in 6.2 mi WSW 3.5 mph - N/A   Partly Cloudy
8:00 AM 33.8 °F - 32.0 °F 93% 30.39 in 6.2 mi North 2.3 mph - N/A   Partly Cloudy
8:30 AM 39.2 °F 34.2 °F 35.6 °F 87% 30.39 in 6.2 mi SE 6.9 mph - N/A   Scattered Clouds
9:00 AM 41 °F - 35 °F 71% 30.45 in - SSE 9.2 mph - -  
9:00 AM 41.0 °F 35.2 °F 35.6 °F 81% 30.42 in 6.2 mi SSE 9.2 mph - N/A   Partly Cloudy
9:30 AM 44.6 °F 40.7 °F 35.6 °F 71% 30.42 in 6.2 mi South 6.9 mph - N/A   Scattered Clouds
10:00 AM 47 °F - 37 °F 58% 30.45 in - SSE 11.5 mph - -  
10:00 AM 48.2 °F - 37.4 °F 66% 30.42 in 6.2 mi SSE 11.5 mph - N/A   Scattered Clouds
10:30 AM 48.2 °F - 35.6 °F 62% 30.39 in 6.2 mi SSE 13.8 mph - N/A   Scattered Clouds
11:00 AM 51.8 °F - 37.4 °F 58% 30.39 in 6.2 mi SSE 15.0 mph - N/A   Scattered Clouds
11:30 AM 50.0 °F - 37.4 °F 62% 30.39 in 6.2 mi South 12.7 mph - N/A   Scattered Clouds
12:00 PM 50 °F - 37 °F 51% 30.42 in - South 12.7 mph - -  
12:00 PM 50.0 °F - 37.4 °F 62% 30.36 in 6.2 mi South 12.7 mph - N/A   Scattered Clouds
12:30 PM 50.0 °F - 37.4 °F 62% 30.36 in 6.2 mi South 10.4 mph - N/A   Scattered Clouds
1:00 PM 51 °F - 39 °F 54% 30.40 in - South 8.1 mph - -  
1:00 PM 51.8 °F - 39.2 °F 62% 30.36 in 6.2 mi South 8.1 mph - N/A   Mostly Cloudy
1:30 PM 51.8 °F - 39.2 °F 62% 30.36 in 6.2 mi ESE 12.7 mph - N/A   Mostly Cloudy
2:00 PM 51.8 °F - 39.2 °F 62% 30.33 in 6.2 mi ESE 11.5 mph - N/A   Mostly Cloudy
2:30 PM 51.8 °F - 39.2 °F 62% 30.33 in 6.2 mi SE 9.2 mph - N/A   Mostly Cloudy
3:00 PM 51 °F - 40 °F 55% 30.38 in - SSE 11.5 mph - -  
3:00 PM 51.8 °F - 39.2 °F 62% 30.33 in 6.2 mi SSE 11.5 mph - N/A   Mostly Cloudy
3:30 PM 50.0 °F - 41.0 °F 71% 30.33 in 6.2 mi SE 10.4 mph - N/A   Mostly Cloudy
4:00 PM 50 °F - 41 °F 62% 30.38 in - ESE 9.2 mph - -  
4:00 PM 50.0 °F - 41.0 °F 71% 30.33 in 6.2 mi ESE 9.2 mph - N/A   Mostly Cloudy
4:30 PM 50.0 °F - 41.0 °F 71% 30.33 in 6.2 mi ESE 10.4 mph - N/A   Mostly Cloudy
5:00 PM 48.2 °F - 41.0 °F 76% 30.33 in 6.2 mi ESE 10.4 mph - N/A   Mostly Cloudy
5:27 PM 46.4 °F 40.7 °F 42.8 °F 87% 30.33 in 6.2 mi ESE 12.7 mph - N/A Rain Light Rain Showers
6:00 PM 47 °F - 42 °F 76% 30.39 in - ESE 8.1 mph - -  
6:00 PM 46.4 °F 42.4 °F 42.8 °F 87% 30.33 in 6.2 mi ESE 8.1 mph - N/A   Mostly Cloudy
6:39 PM 46.4 °F 44.3 °F 41.0 °F 81% 30.36 in 6.2 mi South 4.6 mph - N/A   Mostly Cloudy
7:00 PM 47 °F - 40 °F 70% 30.39 in - SSE 10.4 mph - -  
7:00 PM 46.4 °F 41.5 °F 41.0 °F 81% 30.36 in 6.2 mi SSE 10.4 mph - N/A   Scattered Clouds
7:09 PM 46.4 °F 41.5 °F 41.0 °F 81% 30.36 in 6.2 mi SE 10.4 mph - N/A   Scattered Clouds
7:30 PM 46.4 °F 41.5 °F 41.0 °F 81% 30.33 in 6.2 mi SE 10.4 mph - N/A   Scattered Clouds
8:00 PM 46.4 °F 41.9 °F 39.2 °F 76% 30.36 in 6.2 mi SE 9.2 mph - N/A   Scattered Clouds
8:30 PM 46.4 °F 42.4 °F 41.0 °F 81% 30.36 in 6.2 mi SE 8.1 mph - N/A   Scattered Clouds
9:00 PM 46 °F - 40 °F 72% 30.38 in - SSE 8.1 mph - -  
9:00 PM 46.4 °F 42.4 °F 39.2 °F 76% 30.33 in 6.2 mi SSE 8.1 mph - N/A   Unknown
9:30 PM 46.4 °F 42.4 °F 39.2 °F 76% 30.33 in 6.2 mi SSE 8.1 mph - N/A   Mostly Cloudy
10:00 PM 46 °F - 39 °F 69% 30.38 in - SE 8.1 mph - -  
10:00 PM 46.4 °F 42.4 °F 39.2 °F 76% 30.33 in 6.2 mi SE 8.1 mph - N/A   Mostly Cloudy
10:30 PM 46.4 °F 42.9 °F 39.2 °F 76% 30.33 in 6.2 mi SSE 6.9 mph - N/A   Mostly Cloudy
11:00 PM 46.4 °F 42.9 °F 39.2 °F 76% 30.33 in 6.2 mi SE 6.9 mph - N/A   Mostly Cloudy
11:30 PM 46.4 °F 42.9 °F 39.2 °F 76% 30.33 in 6.2 mi SSE 6.9 mph - N/A   Scattered Clouds